| time (UTC) | temp F | wind direction | speed MPH | gust MPH | rain 1hr in | rain 24hr in | rain mn in | humidity % | barometer mb |
| 20260504201543 | 67 | 209 | 4.0 | 15.0 | 0.00 | 0.00 | 0.00 | 69 | 1007.0 |
| 20260504200046 | 66 | 225 | 4.0 | 10.0 | 0.00 | 0.00 | 0.00 | 68 | 1007.1 |
| 20260504194556 | 66 | 169 | 4.0 | 11.0 | 0.00 | 0.00 | 0.00 | 71 | 1007.4 |
| 20260504193045 | 67 | 229 | 7.0 | 14.0 | 0.00 | 0.00 | 0.00 | 67 | 1007.8 |
| 20260504191543 | 68 | 199 | 8.0 | 17.0 | 0.00 | 0.00 | 0.00 | 64 | 1008.1 |
| 20260504190043 | 69 | 285 | 4.0 | 15.0 | 0.00 | 0.00 | 0.00 | 63 | 1008.0 |
| 20260504184546 | 70 | 221 | 5.0 | 14.0 | 0.00 | 0.00 | 0.00 | 61 | 1007.8 |
| 20260504183041 | 70 | 249 | 7.0 | 17.0 | 0.00 | 0.00 | 0.00 | 61 | 1007.8 |
| 20260504181543 | 70 | 274 | 8.0 | 15.0 | 0.00 | 0.00 | 0.00 | 60 | 1007.4 |
| 20260504180036 | 70 | 200 | 4.0 | 16.0 | 0.00 | 0.00 | 0.00 | 61 | 1007.4 |
| 20260504174546 | 70 | 260 | 6.0 | 17.0 | 0.00 | 0.00 | 0.00 | 61 | 1007.3 |
| 20260504173048 | 70 | 207 | 7.0 | 17.0 | 0.00 | 0.00 | 0.00 | 60 | 1007.5 |
| 20260504171542 | 70 | 213 | 6.0 | 15.0 | 0.00 | 0.00 | 0.00 | 60 | 1007.6 |
| 20260504160123 | 65 | 203 | 4.0 | 10.0 | 0.00 | 0.00 | 0.00 | 66 | 1008.3 |
| 20260504090111 | 50 | 197 | 3.0 | 7.0 | 0.00 | 0.00 | 0.00 | 69 | 1010.0 |
| 20260504081541 | 50 | 197 | 3.0 | 8.0 | 0.00 | 0.00 | 0.00 | 68 | 1010.3 |
| 20260504044555 | 53 | 214 | 2.0 | 7.0 | 0.00 | 0.00 | 0.00 | 62 | 1012.1 |
| 20260504043045 | 53 | 197 | 3.0 | 9.0 | 0.00 | 0.00 | 0.00 | 62 | 1012.3 |
| 20260504041542 | 53 | 0 | 1.0 | 5.0 | 0.00 | 0.00 | 0.00 | 64 | 1012.3 |
| 20260504040042 | 53 | 211 | 0.0 | 3.0 | 0.00 | 0.00 | 0.00 | 65 | 1012.5 |
| 20260504034553 | 52 | 0 | 0.0 | 4.0 | 0.00 | 0.00 | 0.00 | 66 | 1012.6 |
| 20260504033053 | 52 | 0 | 0.0 | 3.0 | 0.00 | 0.00 | 0.00 | 66 | 1012.7 |
| 20260504031536 | 52 | 0 | 0.0 | 2.0 | 0.00 | 0.00 | 0.00 | 68 | 1012.8 |
| 20260504030045 | 51 | 0 | 0.0 | 0.0 | 0.00 | 0.00 | 0.00 | 71 | 1013.0 |
| 20260504024544 | 51 | 0 | 0.0 | 0.0 | 0.00 | 0.00 | 0.00 | 72 | 1013.2 |
| 20260504023036 | 51 | 0 | 0.0 | 0.0 | 0.00 | 0.00 | 0.00 | 72 | 1013.2 |
| 20260504021547 | 51 | 0 | 0.0 | 0.0 | 0.00 | 0.00 | 0.00 | 73 | 1013.2 |
| 20260504020045 | 51 | 0 | 0.0 | 0.0 | 0.00 | 0.00 | 0.00 | 73 | 1013.3 |
| 20260504014547 | 50 | 0 | 0.0 | 0.0 | 0.00 | 0.00 | 0.00 | 73 | 1013.2 |
| 20260504013046 | 50 | 0 | 0.0 | 2.0 | 0.00 | 0.00 | 0.00 | 74 | 1013.2 |
| 20260504011539 | 50 | 0 | 0.0 | 3.0 | 0.00 | 0.00 | 0.00 | 73 | 1013.3 |
| 20260504010054 | 50 | 101 | 0.0 | 3.0 | 0.00 | 0.00 | 0.00 | 73 | 1013.2 |
| 20260504004546 | 50 | 0 | 0.0 | 3.0 | 0.00 | 0.00 | 0.00 | 73 | 1013.1 |
| 20260504003044 | 51 | 0 | 0.0 | 3.0 | 0.00 | 0.00 | 0.00 | 73 | 1013.2 |
| 20260504001601 | 51 | 119 | 0.0 | 3.0 | 0.00 | 0.00 | 0.00 | 72 | 1013.2 |
| 20260504000043 | 50 | 0 | 1.0 | 4.0 | 0.00 | 0.00 | 0.00 | 73 | 1013.1 |
| 20260503234547 | 50 | 63 | 0.0 | 2.0 | 0.00 | 0.00 | 0.00 | 74 | 1013.0 |
| 20260503233045 | 50 | 77 | 0.0 | 2.0 | 0.00 | 0.00 | 0.00 | 75 | 1013.0 |
| 20260503231544 | 50 | 0 | 0.0 | 3.0 | 0.00 | 0.00 | 0.00 | 74 | 1013.3 |
| 20260503230043 | 50 | 53 | 1.0 | 4.0 | 0.00 | 0.00 | 0.00 | 76 | 1013.7 |
| 20260503224541 | 50 | 0 | 2.0 | 3.0 | 0.00 | 0.00 | 0.00 | 76 | 1014.0 |
| 20260503223042 | 50 | 51 | 1.0 | 4.0 | 0.00 | 0.00 | 0.00 | 78 | 1014.5 |
| 20260503221547 | 49 | 0 | 1.0 | 4.0 | 0.00 | 0.00 | 0.00 | 78 | 1014.9 |
| 20260503220104 | 50 | 34 | 2.0 | 4.0 | 0.00 | 0.00 | 0.00 | 76 | 1014.8 |
| 20260503214545 | 50 | 0 | 0.0 | 2.0 | 0.00 | 0.00 | 0.00 | 73 | 1015.3 |
| 20260503213043 | 51 | 225 | 4.0 | 10.0 | 0.00 | 0.00 | 0.00 | 69 | 1015.7 |
| 20260503211557 | 53 | 225 | 6.0 | 19.0 | 0.00 | 0.00 | 0.00 | 60 | 1015.8 |
| 20260503210046 | 56 | 202 | 7.0 | 15.0 | 0.00 | 0.00 | 0.00 | 47 | 1015.3 |
| 20260503204542 | 58 | 226 | 3.0 | 9.0 | 0.00 | 0.00 | 0.00 | 42 | 1015.1 |
| 20260503203042 | 59 | 208 | 4.0 | 11.0 | 0.00 | 0.00 | 0.00 | 42 | 1015.2 |